#timestamp,LO_Frequency,Hit,StdDev 
1551895215.5,286046999.5,N
1551895235.3,286046999.3,N
1551895255.2,286046999.5,N
1551895275.9,286046997.4,N
1551895295.7,286046995.1,Y
1551895315.6,286046995.9,P
1551895335.4,286046995.1,N
1551895355.2,286046993.8,N
1551895375.1,286046996.4,N
1551895376.0,286046996.4,N
1551895395.8,286046994.1,Y
1551895415.7,286046997.2,P
1551895435.5,286046996.8,P
1551895455.3,286046997.0,P
1551895475.2,286046996.7,Y
1551895495.0,286047000.0,P
1551895495.9,286047000.0,N
1551895515.8,286047001.6,N
1551895535.6,286047002.2,N
1551895555.4,286047000.1,N
1551895575.3,286047002.7,N
1551895595.1,286047001.6,N
1551895615.8,286047002.8,N
1551895635.7,286046998.1,N
1551895655.5,286046999.1,N
1551895675.4,286046999.4,N
1551895695.2,286046996.7,N
1551895715.0,286046997.1,N
1551895715.9,286046997.1,N
1551895735.8,286046995.4,N
1551895755.6,286046997.7,N
1551895775.4,286046994.9,N
1551895795.3,286046995.6,N
1551895815.1,286046996.1,N
1551895835.9,286046995.6,N
1551895855.7,286046995.0,N
1551895875.5,286046997.9,N
1551895895.4,286046997.5,N
1551895915.2,286046997.5,N
1551895935.0,286046997.4,N
1551895935.9,286046997.4,N
1551895955.8,286046994.9,N
1551895975.6,286046997.8,N
1551895995.5,286046999.5,N
1551896015.3,286046999.0,N
1551896035.1,286046999.5,N
1551896055.9,286046996.5,N
1551896075.7,286046997.4,N
1551896095.5,286046995.0,N
1551896115.4,286046995.5,N
1551896135.2,286046993.3,Y
1551896155.1,286046995.7,P
1551896156.0,286046995.7,P
1551896175.8,286046995.4,P
1551896195.6,286046993.7,Y
1551896215.5,286046999.2,P
1551896235.3,286046999.3,N
1551896255.2,286046998.8,N
1551896275.9,286046999.3,N
1551896295.7,286046999.1,N
1551896315.6,286046998.6,N
1551896335.4,286046998.6,N
1551896355.2,286046998.7,N
1551896375.1,286046999.0,N
1551896376.0,286046999.0,N
1551896395.8,286046999.4,N
1551896415.7,286046998.8,N
1551896435.5,286046998.2,N
1551896455.3,286046998.3,N
1551896475.2,286046998.2,N
1551896495.9,286046998.3,N
1551896515.7,286047001.0,N
1551896535.6,286047001.2,N
1551896555.4,286047001.1,N
1551896575.2,286047000.7,N
1551896595.1,286046998.4,N
1551896596.0,286046998.4,N
1551896615.8,286046999.1,N
1551896635.7,286046998.3,N
1551896655.5,286047001.1,N
1551896675.3,286046999.1,N
1551896695.2,286046997.7,N
1551896715.0,286046999.5,N
1551896715.9,286046999.5,N
1551896735.8,286046998.0,N
1551896755.6,286046997.9,N
1551896775.5,286046995.1,Y
1551896795.6,286046997.2,P
1551896815.4,286046999.0,N
1551896835.2,286046999.5,N
1551896855.1,286046998.6,N
1551896856.0,286046998.6,N
1551896875.8,286047001.1,N
1551896895.7,286046998.8,N
1551896915.5,286046999.4,N
1551896935.3,286046998.4,N
1551896955.2,286046997.1,Y
1551896975.0,286046999.5,P
1551896975.9,286046999.5,N
1551896995.7,286046996.9,P
1551897015.6,286046999.5,N
1551897035.4,286046997.3,N
1551897055.3,286046996.7,Y
1551897075.1,286047001.0,P
1551897095.8,286047000.3,N
1551897115.7,286047000.3,N
1551897135.5,286046999.7,N
1551897155.4,286047002.7,Y
1551897175.2,286047000.2,P
1551897195.0,286046998.5,P
1551897195.9,286046998.5,N
1551897215.8,286046998.2,N
1551897235.6,286046998.2,N
1551897255.4,286047001.2,N
1551897275.3,286046998.7,N
1551897295.1,286046996.5,Y
1551897315.9,286047000.6,P
1551897335.7,286047000.3,N
1551897355.5,286047000.5,N
1551897375.4,286047001.9,Y
1551897395.2,286047002.0,P
1551897415.1,286047002.4,N
1551897416.0,286047002.4,N
1551897435.8,286047002.7,N
1551897455.6,286046999.7,N
1551897475.5,286046999.8,N
1551897495.3,286047000.0,N
1551897515.2,286047002.8,N
1551897535.9,286047002.5,N
1551897555.7,286047004.3,Y
1551897575.6,286047002.7,P
1551897595.4,286047000.1,N
1551897615.2,286046999.7,N
1551897635.1,286047002.1,N
1551897636.0,286047002.1,N
1551897655.8,286047002.7,N
1551897675.7,286046999.7,N
1551897695.5,286047002.0,N
1551897715.3,286047001.4,N
1551897735.2,286047004.0,Y
1551897755.0,286047001.3,P
1551897755.9,286047001.3,P
1551897775.8,286047001.7,P
1551897795.6,286047004.1,Y
1551897815.4,286047001.7,P
1551897835.3,286047003.6,P
1551897855.1,286047003.1,P
1551897875.9,286047001.6,N
1551897895.7,286047002.5,N
1551897915.5,286047002.4,N
1551897935.4,286047000.2,N
1551897955.2,286047000.4,N
1551897975.0,286047000.3,N
1551897975.9,286047000.3,N
1551897995.8,286046999.8,N
1551898015.6,286047001.5,N
1551898035.5,286047001.4,N
1551898055.3,286047004.2,Y
1551898075.1,286047000.1,P
1551898095.9,286047000.5,N
1551898115.7,286046998.4,N
1551898135.5,286047000.8,N
1551898155.4,286046998.8,N
1551898175.2,286047000.8,N
1551898195.1,286046998.1,N
1551898196.0,286046998.1,N
1551898215.8,286047000.5,N
1551898235.6,286047001.1,N
1551898255.5,286046998.1,N
1551898275.3,286047001.2,N
1551898295.1,286047000.9,N
1551898315.9,286046998.4,N
1551898335.7,286046999.7,N
1551898355.6,286047002.2,N
1551898375.4,286047001.4,N
1551898395.2,286047004.4,Y
1551898415.1,286047003.0,P
1551898416.0,286047003.0,N
1551898435.8,286047003.7,N
1551898455.7,286047001.3,N
1551898475.5,286047001.8,N
1551898495.3,286047001.8,N
1551898515.2,286047002.2,N
1551898535.9,286047002.4,N
1551898555.7,286047002.0,N
1551898575.6,286047002.3,N
1551898595.4,286047002.8,N
1551898615.3,286047001.6,N
1551898635.1,286047002.7,Y
1551898636.0,286047002.7,P
1551898655.8,286046998.9,P
1551898675.7,286046998.9,N
1551898695.5,286046998.3,N
1551898715.3,286047001.0,N
1551898735.2,286047001.0,N
1551898755.0,286047002.5,N
1551898755.9,286047002.5,N
1551898775.8,286047002.8,N
1551898795.6,286046999.7,N
